Regional Weather Roundup
Issued by NWS

Home | Current Version | Previous Version | Graphics & Text | Print | Product List | Glossary On
Versions: 1 2 3 4 5 6 7 8 9 10 11 12 13 14 15 16 17 18 19 20 21 22 23 24 25 26 27 28 29 30 31 32 33 34 35 36 37 38 39 40 41 42 43 44 45 46 47 48 49 50
000
ASUS43 KFSD 250710
RWRSD

WEATHER ROUNDUP FOR SOUTH DAKOTA
NATIONAL WEATHER SERVICE SIOUX FALLS SD
200 AM CDT WED MAY 25 2016

NOTE: "FAIR" INDICATES FEW OR NO CLOUDS BELOW 12,000 FEET WITH NO
SIGNIFICANT WEATHER AND/OR OBSTRUCTIONS TO VISIBILITY.


SDZ001>005-009-010-012>017-250800-
NORTHWEST AND NORTH CENTRAL SOUTH DAKOTA

CITY           SKY/WX    TMP DP  RH WIND       PRES   REMARKS
BUFFALO          N/A     57  46  66 CALM      29.80F
FAITH            N/A     54  47  77 SE3       29.83R
MOBRIDGE       LGT RAIN  61  53  75 SE21      29.81F
$$

SDZ012>016-024>037-041>051-057-063-072>074-250800-
SOUTHWEST AND SOUTH CENTRAL SOUTH DAKOTA

CITY           SKY/WX    TMP DP  RH WIND       PRES   REMARKS
RAPID CTY ARPT CLOUDY    53  49  86 SE5       29.83F
PIERRE         LGT RAIN  57  54  89 NE18G28   29.73F
CUSTER         CLOUDY    43  41  93 CALM      29.91R
ELLSWORTH AFB  CLOUDY    54  51  90 NW10      29.84
PHILIP         CLOUDY    56  50  80 NE15      29.78S
PINE RIDGE     CLOUDY    53  48  83 W10       29.90R
WINNER         RAIN      58  55  90 NE10      29.81F FOG
$$

SDZ004>011-016>023-039-040-250800-
NORTHEAST SOUTH DAKOTA

CITY           SKY/WX    TMP DP  RH WIND       PRES   REMARKS
ABERDEEN       CLOUDY    65  51  60 NE8       29.80S
WATERTOWN      CLOUDY    67  52  58 SE6       29.84R
BROOKINGS      CLOUDY    66  60  81 SE10      29.84S
SISSETON         N/A     61  51  70 CALM      29.84R
$$

SDZ017-020-022-023-036>040-048>070-250800-
SOUTHEAST SOUTH DAKOTA

CITY           SKY/WX    TMP DP  RH WIND       PRES   REMARKS
SIOUX FALLS    CLOUDY    69  62  78 SE13      29.82F
HURON          CLOUDY    69  62  78 SE9       29.76F THUNDER
CHAMBERLAIN    HVY RAIN  60  59  97 N25G33    29.76F
MITCHELL       CLOUDY    69  62  78 SE8       29.76F
YANKTON        CLOUDY    66  59  77 E7        29.78F
$$

ABBREVIATIONS USED IN REMARKS
   TC - TEMPERATURE IN CELSIUS
  WCI - WIND CHILL INDEX
   HX - HEAT INDEX
  VSB - VISIBILITY




USA.gov is the U.S. government's official web portal to all federal, state and local government web resources and services.